Weather History for KIFA - January, 2014

Change the Weather History Date:

Saturday, January 25, 2014

  Actual Average Record
Temperature  
Mean Temperature 22 °F -  
Max Temperature 33 °F 26 °F 59 °F (1981)
Min Temperature 10 °F 9 °F -16 °F (1961)
Degree Days  
Heating Degree Days 44    
Moisture  
Dew Point 7 °F    
Average Humidity 62    
Maximum Humidity 88    
Minimum Humidity 45    
Precipitation  
Precipitation 0.00 in - - ()
Sea Level Pressure  
Sea Level Pressure 29.80 in    
Wind  
Wind Speed 20 mph (WNW)    
Max Wind Speed 32 mph    
Max Gust Speed 41 mph    
Visibility 9 miles    
Events Snow    
Averages and records for this station are not official NWS values.
T = Trace of Precipitation, MM = Missing Value Source: NWS Daily Summary

Daily Weather History Graph

Daily Weather History Graph

Search for Another Location

Airport or City:

Trip Planner

Search our weather history database for the weather conditions in past years. The results will help you decide how hot, cold, wet, or windy it might be!

Date:

Astronomy

Jan. 25, 2014 Rise Set
Actual Time 7:33 AM CST 5:17 PM CST
Civil Twilight 7:03 AM CST 5:48 PM CST
Nautical Twilight 6:28 AM CST 6:22 PM CST
Astronomical Twilight 5:55 AM CST 6:55 PM CST
Moon 2:05 AM CST (1/25) 12:19 PM CST (1/25)
Length of Visible Light 10h 45m
Length of Day
9h 44m
Waning Crescent, 34% of the Moon is Illuminated
Jan 25
Waning Crescent
Jan 30
New
Feb 6
First Quarter
Feb 14
Full
Feb 22
Last Quarter

Hourly Weather History & Observations

Time (CST) Temp. Windchill Dew Point Humidity Pressure Visibility Wind Dir Wind Speed Gust Speed Precip Events Conditions
12:15 AM 33.8 °F 22.8 °F 28.2 °F 80% 29.61 in 7.0 mi NW 18.4 mph - N/A   Overcast
12:35 AM 33.3 °F 22.8 °F 27.5 °F 79% 29.61 in 10.0 mi NW 16.1 mph - N/A   Overcast
12:55 AM 33.1 °F 22.6 °F 27.3 °F 79% 29.62 in 7.0 mi WNW 16.1 mph 23.0 mph N/A   Overcast
1:15 AM 32.0 °F 21.6 °F 27.0 °F 82% 29.62 in 7.0 mi WNW 15.0 mph - N/A   Mostly Cloudy
1:35 AM 31.5 °F 20.9 °F 26.6 °F 82% 29.62 in 7.0 mi West 15.0 mph - N/A   Clear
1:55 AM 31.6 °F 20.7 °F 27.0 °F 83% 29.63 in 10.0 mi WNW 16.1 mph - N/A   Mostly Cloudy
2:15 AM 31.8 °F 21.0 °F 27.5 °F 84% 29.64 in 10.0 mi WNW 16.1 mph 21.9 mph N/A   Overcast
2:35 AM 32.0 °F 20.5 °F 28.0 °F 85% 29.65 in 10.0 mi WNW 18.4 mph 24.2 mph N/A   Overcast
2:55 AM 32.5 °F 19.4 °F 28.4 °F 85% 29.65 in 10.0 mi NW 25.3 mph 33.4 mph N/A   Overcast
3:15 AM 32.0 °F 17.9 °F 27.3 °F 83% 29.66 in 10.0 mi NW 28.8 mph 33.4 mph N/A   Overcast
3:35 AM 30.6 °F 16.2 °F 22.3 °F 71% 29.68 in 10.0 mi NW 27.6 mph 40.3 mph N/A   Overcast
3:55 AM 28.4 °F 13.5 °F 19.6 °F 70% 29.69 in 10.0 mi NW 26.5 mph 38.0 mph N/A   Overcast
4:15 AM 26.2 °F 10.9 °F 17.1 °F 68% 29.71 in 10.0 mi NW 25.3 mph 38.0 mph N/A   Overcast
4:35 AM 25.5 °F 11.6 °F 18.5 °F 75% 29.72 in 10.0 mi NW 19.6 mph - N/A   Mostly Cloudy
4:55 AM 24.4 °F 8.2 °F 17.1 °F 73% 29.74 in 10.0 mi NW 26.5 mph 33.4 mph N/A   Mostly Cloudy
5:15 AM 21.7 °F 5.6 °F 13.1 °F 69% 29.74 in 10.0 mi NW 23.0 mph 28.8 mph N/A   Scattered Clouds
5:35 AM 20.3 °F 2.6 °F 12.2 °F 71% 29.76 in 10.0 mi NNW 26.5 mph 34.5 mph N/A   Clear
5:55 AM 18.0 °F -0.8 °F 6.3 °F 60% 29.77 in 10.0 mi NW 27.6 mph 35.7 mph N/A   Clear
6:15 AM 16.9 °F -1.3 °F 6.1 °F 63% 29.78 in 10.0 mi NW 24.2 mph 32.2 mph N/A   Clear
6:35 AM 16.5 °F -3.4 °F 5.2 °F 61% 29.80 in 10.0 mi NW 29.9 mph 39.1 mph N/A   Clear
6:55 AM 13.8 °F -6.1 °F 2.3 °F 60% 29.81 in 10.0 mi NW 26.5 mph 35.7 mph N/A   Clear
7:15 AM 13.1 °F -7.4 °F 3.0 °F 64% 29.83 in 10.0 mi NW 27.6 mph 32.2 mph N/A   Clear
7:35 AM 11.8 °F -9.4 °F 0.3 °F 60% 29.84 in 10.0 mi NW 28.8 mph 38.0 mph N/A   Clear
7:55 AM 11.1 °F -9.7 °F -1.3 °F 57% 29.86 in 10.0 mi NW 26.5 mph 33.4 mph N/A   Clear
8:15 AM 10.9 °F -10.3 °F -2.2 °F 56% 29.88 in 10.0 mi NW 27.6 mph 41.4 mph N/A   Clear
8:35 AM 10.8 °F -9.8 °F -2.9 °F 54% 29.88 in 10.0 mi NW 25.3 mph 39.1 mph N/A   Clear
8:55 AM 10.9 °F -11.3 °F -2.7 °F 54% 29.89 in 10.0 mi NW 31.1 mph 39.1 mph N/A   Clear
9:15 AM 11.5 °F -10.2 °F -3.3 °F 52% 29.90 in 10.0 mi NW 29.9 mph 36.8 mph N/A   Clear
9:35 AM 11.3 °F -10.8 °F -3.8 °F 51% 29.90 in 10.0 mi NW 31.1 mph 38.0 mph N/A   Clear
9:55 AM 11.5 °F -10.9 °F -4.0 °F 50% 29.91 in 10.0 mi NW 32.2 mph 40.3 mph N/A   Clear
10:15 AM 12.0 °F -7.7 °F -2.4 °F 53% 29.92 in 10.0 mi NW 24.2 mph 39.1 mph N/A   Clear
10:35 AM 12.0 °F -9.5 °F -2.0 °F 53% 29.93 in 10.0 mi NW 29.9 mph 35.7 mph N/A   Clear
10:55 AM 12.7 °F -8.2 °F -1.3 °F 54% 29.93 in 10.0 mi NW 28.8 mph 34.5 mph N/A   Clear
11:15 AM 12.4 °F -8.0 °F -2.6 °F 51% 29.94 in 10.0 mi NW 26.5 mph 34.5 mph N/A   Clear
11:35 AM 13.6 °F -6.3 °F -0.9 °F 52% 29.95 in 10.0 mi NW 26.5 mph 32.2 mph N/A   Clear
11:55 AM 13.3 °F -6.1 °F -1.3 °F 52% 29.95 in 10.0 mi NW 24.2 mph 33.4 mph N/A   Clear
12:15 PM 14.4 °F -5.0 °F 0.7 °F 55% 29.94 in 10.0 mi WNW 25.3 mph - N/A   Clear
12:35 PM 14.9 °F -3.9 °F 0.7 °F 53% 29.94 in 10.0 mi NW 24.2 mph 27.6 mph N/A   Clear
12:55 PM 15.1 °F -4.0 °F -0.6 °F 50% 29.93 in 10.0 mi NW 25.3 mph 31.1 mph N/A   Clear
1:15 PM 15.6 °F -3.3 °F -0.9 °F 48% 29.94 in 10.0 mi WNW 25.3 mph 31.1 mph N/A   Clear
1:35 PM 16.3 °F -1.2 °F -0.6 °F 47% 29.94 in 10.0 mi WNW 21.9 mph 27.6 mph N/A   Clear
1:55 PM 16.7 °F 0.1 °F 0.1 °F 48% 29.93 in 10.0 mi WNW 19.6 mph 31.1 mph N/A   Clear
2:15 PM 16.7 °F -1.5 °F 0.1 °F 48% 29.93 in 10.0 mi NW 24.2 mph 28.8 mph N/A   Clear
2:35 PM 16.7 °F -0.3 °F -0.8 °F 46% 29.92 in 10.0 mi WNW 20.7 mph 29.9 mph N/A   Clear
2:55 PM 17.2 °F 0.8 °F -0.4 °F 46% 29.92 in 10.0 mi WNW 19.6 mph 26.5 mph N/A   Clear
3:15 PM 17.4 °F 1.0 °F -0.8 °F 45% 29.92 in 10.0 mi WNW 19.6 mph 27.6 mph N/A   Clear
3:35 PM 17.6 °F -0.6 °F -0.6 °F 45% 29.92 in 10.0 mi WNW 25.3 mph 28.8 mph N/A   Clear
3:55 PM 17.2 °F 0.8 °F -0.6 °F 46% 29.92 in 10.0 mi West 19.6 mph 26.5 mph N/A   Clear
4:15 PM 17.1 °F 0.1 °F -0.8 °F 46% 29.92 in 10.0 mi West 20.7 mph 25.3 mph N/A   Clear
4:35 PM 16.9 °F 0.8 °F -1.1 °F 45% 29.91 in 10.0 mi WNW 18.4 mph 24.2 mph N/A   Clear
4:55 PM 15.8 °F 1.4 °F -0.8 °F 48% 29.91 in 10.0 mi WNW 13.8 mph - N/A   Clear
5:15 PM 15.4 °F 1.6 °F 0.7 °F 52% 29.90 in 10.0 mi WNW 12.7 mph - N/A   Clear
5:35 PM 15.3 °F 4.4 °F 1.9 °F 56% 29.89 in 10.0 mi WNW 8.1 mph - N/A   Clear
5:55 PM 15.8 °F - 1.4 °F 53% 29.88 in 10.0 mi Calm Calm - N/A   Scattered Clouds
6:15 PM 16.0 °F 7.4 °F 1.4 °F 53% 29.88 in 10.0 mi WNW 5.8 mph - N/A   Overcast
6:35 PM 16.3 °F 6.7 °F 3.0 °F 56% 29.88 in 10.0 mi West 6.9 mph - N/A   Overcast
6:55 PM 16.7 °F 8.3 °F 3.6 °F 56% 29.87 in 10.0 mi WSW 5.8 mph - N/A   Overcast
7:15 PM 16.9 °F 9.8 °F 4.8 °F 59% 29.85 in 10.0 mi WSW 4.6 mph - N/A   Overcast
7:35 PM 17.2 °F 11.9 °F 5.4 °F 60% 29.83 in 10.0 mi SSW 3.5 mph - N/A   Overcast
7:55 PM 17.6 °F 9.3 °F 5.7 °F 60% 29.82 in 10.0 mi South 5.8 mph - N/A   Overcast
8:15 PM 18.0 °F 11.1 °F 6.4 °F 61% 29.80 in 10.0 mi South 4.6 mph - N/A   Overcast
8:35 PM 18.0 °F 9.8 °F 7.5 °F 64% 29.77 in 10.0 mi South 5.8 mph - N/A   Overcast
8:55 PM 18.3 °F 9.1 °F 7.5 °F 63% 29.74 in 10.0 mi SSE 6.9 mph - N/A   Overcast
9:15 PM 18.5 °F 9.3 °F 7.2 °F 61% 29.70 in 10.0 mi ESE 6.9 mph - N/A   Overcast
9:35 PM 18.5 °F 9.3 °F 8.1 °F 64% 29.70 in 10.0 mi SSE 6.9 mph - N/A   Overcast
9:55 PM 18.5 °F 7.5 °F 8.4 °F 65% 29.69 in 10.0 mi SSE 9.2 mph - N/A   Overcast
10:15 PM 17.6 °F 5.7 °F 11.1 °F 76% 29.66 in 1.2 mi SE 10.4 mph - N/A Snow Light Snow
10:35 PM 16.7 °F 3.2 °F 13.1 °F 86% 29.63 in 1.2 mi SE 12.7 mph - N/A Snow Light Snow
10:55 PM 16.7 °F 2.0 °F 13.6 °F 88% 29.60 in 1.5 mi SE 15.0 mph - N/A Snow Light Snow
11:15 PM 16.7 °F 1.5 °F 13.6 °F 88% 29.58 in 5.0 mi SE 16.1 mph - N/A Snow Light Snow
11:35 PM 16.7 °F 1.5 °F 13.5 °F 87% 29.54 in 10.0 mi SE 16.1 mph - N/A Snow Light Snow
11:55 PM 17.4 °F 1.5 °F 13.3 °F 84% 29.51 in 10.0 mi SE 18.4 mph 25.3 mph N/A   Overcast